[[{"header":{"parameterUnit":"m.s-1","parameterCategory":1,"la1":30.2991,"la2":30.254,"lo1":-89.0895,"lo2":-89.0444,"dy":0.0017,"dx":0.0017,"nx":28,"ny":28,"refTime":"2024-04-20T21:00:00:Z","depth":0,"parameterNumber":2,"parameterNumberName":"U-component_of_WINDS"},"data":[0,0,0,0,0,0,0,0,0,0,0,0,0,0,0,0,0,0,0,0,0,0,0,0,0,0,0,0,0,0,0,0,0,0,0,0,0,0,0,0,0,0,0,0,0,0,0,0,0,0,0,0,0,0,0,0,0,0,-0.6502,-0.6503,0,-0.662,-0.6621,-0.6622,-0.6638,-0.6637,-0.6636,-0.6635,-0.6757,-0.6761,-0.6765,0,0,0,0,0,0,0,0,0,0,0,0,0,-0.6292,-0.6296,-0.6502,-0.6503,-0.6505,-0.6619,-0.6621,-0.6623,-0.6638,-0.6637,-0.6635,-0.6634,-0.6755,-0.676,-0.6766,0,0,0,0,0,0,0,0,0,0,0,0,0,-0.6394,-0.6297,-0.6502,-0.6526,-0.653,-0.6619,-0.6621,-0.6623,-0.6638,-0.6637,-0.6635,-0.6634,-0.6754,-0.676,-0.6766,-0.684,0,0,-0.6786,-0.6789,0,0,0,0,0,0,0,0,-0.6388,-0.6401,-0.6521,-0.6525,-0.6529,-0.6612,-0.6592,-0.6696,-0.6639,-0.6597,-0.6635,-0.6633,-0.671,-0.672,-0.6746,-0.6845,-0.6851,-0.6787,-0.679,-0.6793,-0.6795,0,0,0,0,0,0,0,-0.6381,-0.6396,-0.6549,-0.6523,-0.6528,-0.6532,-0.6545,-0.6611,-0.6662,-0.6601,-0.6602,-0.6616,-0.6712,-0.674,-0.6749,-0.6852,-0.6786,-0.6792,-0.6796,-0.6799,-0.7018,-0.702,0,0,0,0,0,0,-0.6369,-0.639,-0.6545,-0.6552,-0.6453,-0.6537,-0.6551,-0.6587,-0.6661,-0.6671,-0.6617,-0.6616,-0.6729,-0.6741,-0.6753,-0.6845,-0.6793,-0.6799,-0.6803,-0.7016,-0.7018,-0.7021,0,0,0,0,0,0,-0.6364,-0.6383,-0.654,-0.6472,-0.6492,-0.6542,-0.6583,-0.659,-0.6618,-0.6673,-0.6683,-0.6636,-0.6729,-0.6744,-0.6818,-0.6849,-0.6802,-0.6808,-0.7014,-0.7017,-0.7019,-0.7028,0,0,0,0,0,0,-0.6358,-0.6381,-0.6409,-0.6472,-0.6496,-0.6603,-0.6585,-0.6594,-0.6629,-0.6629,-0.6694,-0.6703,-0.6728,-0.6808,-0.6824,-0.6857,-0.6813,-0.7011,-0.7015,-0.7019,-0.7025,-0.7031,-0.7035,0,0,0,0,0,-0.6351,-0.6407,-0.6411,-0.6429,-0.6532,-0.6604,-0.6618,-0.6646,-0.6631,-0.6661,-0.6696,-0.6701,-0.6842,-0.6816,-0.6834,-0.6869,-0.7009,-0.7014,-0.7018,-0.7023,-0.7029,-0.7035,0,0,0,0,0,0,-0.6348,-0.6416,-0.6421,-0.6499,-0.6546,-0.6607,-0.6645,-0.6652,-0.6705,-0.6702,-0.6735,-0.6749,-0.6822,-0.6853,-0.6821,-0.6944,-0.6925,-0.6933,-0.6922,-0.6929,-0.6934,-0.6926,-0.6818,0,0,0,0,0,-0.6356,-0.6408,-0.6465,-0.6529,-0.6552,-0.6594,-0.6627,-0.6644,-0.6694,-0.6714,-0.6755,-0.6804,-0.6859,-0.6895,-0.6949,-0.7028,-0.7043,-0.7062,-0.7067,-0.7071,-0.7078,-0.7123,-0.7132,-0.7035,-0.7035,-0.7035,0,0,-0.6374,-0.6418,-0.6449,-0.653,-0.6568,-0.6622,-0.6611,-0.6669,-0.671,-0.6723,-0.6796,-0.6827,-0.6883,-0.696,-0.6996,-0.6988,-0.7108,-0.7076,-0.7079,-0.7085,-0.7128,-0.7138,-0.7146,-0.7038,-0.7037,-0.7037,0,0,-0.6435,-0.6473,-0.653,-0.6568,-0.6626,-0.6653,-0.6667,-0.6727,-0.6748,-0.6821,-0.6832,-0.6881,-0.6976,-0.7016,-0.7049,-0.7123,-0.713,-0.7139,-0.7168,-0.7211,-0.7218,-0.7225,-0.7253,-0.7263,-0.7146,-0.7146,-0.7146,0,-0.6451,-0.6533,-0.6559,-0.6617,-0.6652,-0.6665,-0.6724,-0.676,-0.6832,-0.6857,-0.6846,-0.6965,-0.7004,-0.7091,-0.7109,-0.7134,-0.7151,-0.7133,-0.7215,-0.7222,-0.7229,-0.7256,-0.7266,-0.7147,-0.7147,-0.7147,-0.7147,0,-0.6549,-0.6606,-0.6645,-0.6714,-0.6754,-0.6812,-0.6847,-0.6884,-0.6897,-0.6925,-0.6999,-0.7046,-0.711,-0.7131,-0.7145,-0.722,-0.7213,-0.7208,-0.719,-0.7239,-0.7265,-0.7275,-0.7148,-0.7148,-0.7148,-0.7147,0,0,-0.6614,-0.6696,-0.671,-0.6742,-0.6805,-0.685,-0.6908,-0.697,-0.7001,-0.705,-0.71,-0.7179,-0.7175,-0.7212,-0.723,-0.7267,-0.7324,-0.7258,-0.726,-0.727,-0.7411,-0.7416,-0.7427,-0.7328,-0.733,-0.7332,-0.7407,0,-0.6684,-0.6788,-0.6813,-0.6902,-0.6955,-0.6967,-0.7018,-0.7063,-0.709,-0.7139,-0.717,-0.7226,-0.7215,-0.7238,-0.7275,-0.731,-0.7353,-0.7304,-0.7377,-0.7379,-0.7364,-0.7441,-0.7446,-0.7515,-0.7417,-0.7419,-0.742,0,-0.678,-0.683,-0.6925,-0.6981,-0.7004,-0.705,-0.7108,-0.7154,-0.7205,-0.7222,-0.7263,-0.7277,-0.7338,-0.7314,-0.74,-0.7366,-0.7396,-0.7417,-0.7421,-0.743,-0.7404,-0.7454,-0.7537,-0.7548,-0.7436,-0.7435,-0.7433,0,-0.682,-0.6911,-0.6979,-0.7006,-0.7073,-0.7104,-0.7134,-0.7183,-0.7218,-0.7269,-0.7292,-0.735,-0.7382,-0.7426,-0.7455,-0.7435,-0.7538,-0.7517,-0.7555,-0.7554,-0.7578,-0.7577,-0.767,-0.7594,-0.7594,-0.7594,-0.7594,0,-0.6896,-0.6954,-0.6998,-0.7041,-0.7105,-0.7133,-0.7196,-0.7226,-0.7269,-0.7318,-0.7331,-0.7376,-0.7411,-0.7461,-0.7484,-0.7552,-0.7565,-0.7582,-0.7588,-0.7582,-0.758,-0.7604,-0.7601,-0.7597,-0.7596,-0.7596,-0.7595,0,-0.6953,-0.6985,-0.706,-0.7117,-0.7132,-0.7178,-0.7227,-0.7268,-0.7295,-0.7356,-0.7372,-0.7415,-0.7475,-0.7507,-0.7582,-0.7597,-0.7673,-0.7675,-0.7656,-0.7659,-0.7696,-0.7693,-0.781,-0.7827,-0.7738,-0.7739,-0.774,0,-0.7001,-0.7046,-0.7107,-0.714,-0.717,-0.7223,-0.7259,-0.7287,-0.7324,-0.7384,-0.7419,-0.7479,-0.7529,-0.7623,-0.7661,-0.7718,-0.7723,-0.776,-0.7732,-0.7725,-0.7726,-0.7724,-0.7729,-0.7765,-0.7766,-0.7767,-0.7767,0,-0.7083,-0.7096,-0.7147,-0.7204,-0.7246,-0.7292,-0.7337,-0.7364,-0.7399,-0.744,-0.75,-0.7539,-0.7615,-0.7675,-0.7734,-0.7765,-0.7773,-0.7775,-0.7788,-0.7784,-0.7771,-0.778,-0.7672,-0.7773,-0.7773,-0.7772,-0.7772,-0.7772,-0.7138,-0.7179,-0.7228,-0.7284,-0.7321,-0.7363,-0.7405,-0.7436,-0.7487,-0.7551,-0.7564,-0.7628,-0.7677,-0.7758,-0.779,-0.7841,-0.7834,-0.7851,-0.7856,-0.7861,-0.7863,-0.7761,-0.7852,-0.7852,-0.7852,-0.7851,-0.7851,0,-0.7223,-0.7254,-0.7306,-0.7368,-0.7413,-0.7414,-0.7464,-0.7501,-0.7558,-0.7602,-0.765,-0.772,-0.7778,-0.7819,-0.7878,-0.7911,-0.7916,-0.7926,-0.7925,-0.7932,-0.7865,-0.7849,-0.7921,-0.7921,-0.7921,-0.7921,-0.7921,-0.7921,-0.7272,-0.7341,-0.7359,-0.7446,-0.7477,-0.754,-0.7569,-0.7607,-0.7643,-0.772,-0.7768,-0.7794,-0.7838,-0.7899,-0.7952,-0.7963,-0.7985,-0.7995,-0.8006,-0.7944,-0.7936,-0.7929,-0.7915,-0.7999,-0.7999,-0.8069,-0.8069,-0.807]},{"header":{"parameterUnit":"m.s-1","parameterCategory":1,"la1":30.2991,"la2":30.254,"lo1":-89.0895,"lo2":-89.0444,"dy":0.0017,"dx":0.0017,"nx":28,"ny":28,"refTime":"2024-04-20T21:00:00:Z","depth":0,"parameterNumber":3,"parameterNumberName":"V-component_of_WINDS"},"data":[0,0,0,0,0,0,0,0,0,0,0,0,0,0,0,0,0,0,0,0,0,0,0,0,0,0,0,0,0,0,0,0,0,0,0,0,0,0,0,0,0,0,0,0,0,0,0,0,0,0,0,0,0,0,0,0,0,0,-7.8061,-7.8062,0,-7.8177,-7.8179,-7.818,-7.8102,-7.8099,-7.8095,-7.8092,-7.8206,-7.8212,-7.8218,0,0,0,0,0,0,0,0,0,0,0,0,0,-7.7766,-7.7772,-7.8061,-7.8062,-7.8064,-7.8177,-7.8179,-7.818,-7.8103,-7.8099,-7.8094,-7.809,-7.8203,-7.8211,-7.8218,0,0,0,0,0,0,0,0,0,0,0,0,0,-7.7889,-7.7774,-7.8061,-7.8039,-7.8038,-7.8177,-7.8179,-7.8181,-7.8104,-7.8099,-7.8093,-7.8088,-7.8201,-7.821,-7.822,-7.8384,0,0,-7.8248,-7.8253,0,0,0,0,0,0,0,0,-7.7882,-7.79,-7.8041,-7.8041,-7.804,-7.812,-7.8116,-7.8249,-7.8105,-7.8079,-7.8092,-7.8086,-7.8181,-7.8192,-7.8225,-7.8389,-7.8394,-7.8249,-7.8255,-7.8259,-7.8262,0,0,0,0,0,0,0,-7.7874,-7.7895,-7.8107,-7.8043,-7.8043,-7.8022,-7.8033,-7.8141,-7.8158,-7.8081,-7.8075,-7.8091,-7.818,-7.8216,-7.8227,-7.8396,-7.8249,-7.8257,-7.8263,-7.8267,-7.8698,-7.8704,0,0,0,0,0,0,-7.7868,-7.7888,-7.8103,-7.811,-7.7947,-7.8031,-7.8044,-7.81,-7.8157,-7.816,-7.8095,-7.8087,-7.8203,-7.8216,-7.8231,-7.8426,-7.8259,-7.8268,-7.8273,-7.8692,-7.8699,-7.8706,0,0,0,0,0,0,-7.7862,-7.7888,-7.8098,-7.7998,-7.8023,-7.8042,-7.8105,-7.8105,-7.8141,-7.8168,-7.8169,-7.8129,-7.8199,-7.8217,-7.8346,-7.8429,-7.8272,-7.8281,-7.8686,-7.8695,-7.8703,-7.8818,0,0,0,0,0,0,-7.7854,-7.7886,-7.7951,-7.8,-7.8029,-7.8214,-7.811,-7.8111,-7.8158,-7.8148,-7.82,-7.8204,-7.8196,-7.8333,-7.8356,-7.8439,-7.8288,-7.8678,-7.869,-7.87,-7.8807,-7.883,-7.8849,0,0,0,0,0,-7.7844,-7.7978,-7.7954,-7.7981,-7.811,-7.8219,-7.8236,-7.8226,-7.8165,-7.8229,-7.8245,-7.8202,-7.8416,-7.8347,-7.8372,-7.8459,-7.8673,-7.8686,-7.8699,-7.8797,-7.8825,-7.8848,0,0,0,0,0,0,-7.7936,-7.7984,-7.7958,-7.8113,-7.8163,-7.8206,-7.8286,-7.8255,-7.8322,-7.831,-7.8293,-7.8305,-7.844,-7.8462,-7.8384,-7.862,-7.8535,-7.8553,-7.8601,-7.8627,-7.8648,-7.8639,-7.8296,0,0,0,0,0,-7.7974,-7.8061,-7.8097,-7.823,-7.8257,-7.8268,-7.8315,-7.8303,-7.8353,-7.8373,-7.8399,-7.8448,-7.8526,-7.8578,-7.8651,-7.881,-7.8819,-7.8882,-7.8903,-7.892,-7.8936,-7.902,-7.9048,-7.8748,-7.8748,-7.8748,0,0,-7.8054,-7.8091,-7.8147,-7.825,-7.8287,-7.8375,-7.8286,-7.8383,-7.8448,-7.8387,-7.8511,-7.8532,-7.8585,-7.8729,-7.8794,-7.8752,-7.9021,-7.8937,-7.895,-7.8957,-7.9036,-7.9064,-7.909,-7.8757,-7.8756,-7.8754,0,0,-7.8245,-7.8283,-7.8397,-7.8436,-7.8494,-7.85,-7.8528,-7.8576,-7.8588,-7.8712,-7.8668,-7.8744,-7.8879,-7.8918,-7.8956,-7.9161,-7.9123,-7.9185,-7.9295,-7.9376,-7.94,-7.9421,-7.9492,-7.9519,-7.9201,-7.9201,-7.9202,0,-7.8337,-7.847,-7.8459,-7.856,-7.8605,-7.8556,-7.867,-7.8708,-7.8787,-7.8818,-7.8771,-7.8939,-7.8971,-7.9123,-7.9173,-7.9206,-7.9234,-7.9179,-7.9398,-7.9419,-7.9438,-7.9506,-7.9533,-7.9209,-7.9208,-7.9207,-7.9206,0,-7.8579,-7.8672,-7.8757,-7.8836,-7.8891,-7.8998,-7.9,-7.9057,-7.904,-7.905,-7.9176,-7.9213,-7.9293,-7.9328,-7.9312,-7.9477,-7.9449,-7.94,-7.9314,-7.9474,-7.9537,-7.9563,-7.9219,-7.9216,-7.9214,-7.9212,0,0,-7.8832,-7.8903,-7.8934,-7.8968,-7.9029,-7.9099,-7.9203,-7.9282,-7.933,-7.9386,-7.9471,-7.9586,-7.9541,-7.9584,-7.9571,-7.9643,-7.9801,-7.9585,-7.9586,-7.9623,-7.9984,-8.002,-8.0051,-7.9776,-7.9781,-7.9785,-7.9979,0,-7.9025,-7.9209,-7.9201,-7.9371,-7.9455,-7.941,-7.9499,-7.9545,-7.9557,-7.9629,-7.9641,-7.9723,-7.9658,-7.9683,-7.9752,-7.9768,-7.9873,-7.9753,-7.9853,-7.9857,-7.9841,-8.0084,-8.0123,-8.0304,-8.0004,-8.0008,-8.0011,0,-7.9276,-7.9341,-7.9521,-7.9567,-7.9602,-7.9684,-7.9755,-7.9825,-7.9874,-7.9878,-7.9926,-7.9902,-8.0004,-7.9916,-8.0055,-7.9974,-8.0014,-8.0028,-8.0034,-8.0042,-7.9944,-8.0098,-8.0362,-8.0389,-8.0051,-8.0048,-8.0045,0,-7.9441,-7.9574,-7.9698,-7.9729,-7.9787,-7.9844,-7.9871,-7.9915,-7.9963,-8.0025,-8.0055,-8.0127,-8.0166,-8.0222,-8.0216,-8.0153,-8.0358,-8.0269,-8.0362,-8.0362,-8.0407,-8.0404,-8.068,-8.0434,-8.0434,-8.0433,-8.0433,0,-7.9657,-7.9769,-7.9773,-7.9849,-7.9971,-7.996,-8.0081,-8.01,-8.014,-8.0218,-8.0182,-8.0255,-8.0244,-8.0317,-8.0313,-8.0428,-8.0446,-8.0451,-8.0448,-8.0454,-8.0453,-8.0479,-8.0466,-8.0441,-8.0439,-8.0438,-8.0436,0,-7.9862,-7.987,-8.0002,-8.0046,-8.0059,-8.0148,-8.0184,-8.0255,-8.0264,-8.0363,-8.0385,-8.0398,-8.0482,-8.0482,-8.0577,-8.0574,-8.0715,-8.0699,-8.07,-8.0696,-8.0788,-8.0779,-8.109,-8.1129,-8.0859,-8.0862,-8.0864,0,-8.0,-8.0085,-8.0138,-8.0188,-8.0219,-8.03,-8.0349,-8.034,-8.0392,-8.0454,-8.0518,-8.0598,-8.0662,-8.0797,-8.0814,-8.0886,-8.087,-8.0974,-8.0881,-8.0883,-8.087,-8.0865,-8.0873,-8.0992,-8.0995,-8.0998,-8.1,0,-8.0243,-8.0242,-8.0315,-8.039,-8.0449,-8.0507,-8.0559,-8.0602,-8.0599,-8.0659,-8.0745,-8.0794,-8.0892,-8.0971,-8.1041,-8.1065,-8.1032,-8.1029,-8.1054,-8.106,-8.1057,-8.1059,-8.0748,-8.1022,-8.102,-8.1018,-8.1017,-8.1016,-8.0418,-8.0491,-8.0539,-8.0621,-8.066,-8.0711,-8.0779,-8.0797,-8.0869,-8.0949,-8.0939,-8.1034,-8.1079,-8.117,-8.12,-8.1273,-8.1236,-8.1273,-8.1282,-8.1291,-8.13,-8.1046,-8.1285,-8.1285,-8.1284,-8.1283,-8.1283,0,-8.0658,-8.0687,-8.0763,-8.0839,-8.0903,-8.0867,-8.0924,-8.0979,-8.1064,-8.111,-8.1174,-8.1271,-8.1348,-8.1371,-8.1445,-8.1498,-8.1485,-8.1518,-8.1513,-8.1519,-8.1329,-8.13,-8.1527,-8.1527,-8.1527,-8.1527,-8.1527,-8.1527,-8.0791,-8.0911,-8.0916,-8.1055,-8.1082,-8.1177,-8.1212,-8.1257,-8.1294,-8.1405,-8.147,-8.1485,-8.1521,-8.1597,-8.1665,-8.1669,-8.1697,-8.1737,-8.1735,-8.1557,-8.1533,-8.1509,-8.1481,-8.1743,-8.1743,-8.1918,-8.192,-8.1921]}]]